STARLINK-6286, 56558

Orbit data source: Space-Track

STARLINK-6286, 56558 is a payload satellite owned by SpaceX/Seattle (US) in LEO that was launched on Sun, 14 May 2023 UTC via an FALCON 9 launch vehicle from the Air Force Eastern Test Range (AFETR). Payload-class satellites include a variety of spacecraft equipped with specific instruments for various scientific and technological missions. These include communications satellites like Starlink; space stations such as the ISS; scientific satellites like the Hubble; Earth observation satellites from companies like Planet Labs, Umbra, and HawkEye 360; GPS; miniature CubeSats for education and research; and military/defense satellites.

Loading next visibility...
Identifier
56558, 2023-065BH
Orbit
LEO
Country
Flag of USUS
Related business
Manufacturer
SpaceX/Seattle
Mission
Operational Commercial Communications
Bus & Motor
STARLINK, Unknown motor
Mass
305 kg wet, ~290 kg dry
Launch date (UTC)
2023-05-14 (3 years ago)
Launch vehicle
FALCON 9
Launch site
Air Force Eastern Test Range (AFETR)
Object type
Payload
Rocket body
Debris
Shape & HBR
Box + 1 Pan, 10.1 m
Radar Cross Section
11.087 m², Large (>1 m²)

Expand to show TLE details & history
Last TLE update: 3 days ago

TLE from 3 days ago
0 STARLINK-6286
1 56558U 23065BH  26169.98549186  .00013474  00000-0  50160-3 0  9993
2 56558  43.0032  14.9507 0001319  49.1154 310.9812 15.27358619171928
Epoch: 2026-06-18T23:39Z
TLE epoch observation values (Epoch: 2026-06-18T23:39:06.496Z)
Latitude
-0.00001°
Longitude
112.95266°
Altitude
482.894 km
Speed
7.626 km/s
True Right ascension
00h 59m 48s
True Declination
0° 00' 00"
Sunlit
Object was in daylight at epoch
Visualization orbit readout
Latitude
Unknown
Longitude
Unknown
Altitude
Unknown
Speed
Unknown
Apparent Right ascension
Unknown
Apparent Declination
Unknown
Sunlit
N/A
Visualization observer readout
Local Sidereal Time
21:26:38
Azimuth
Unknown
Elevation
Unknown
Doppler factor
Unknown
Orbital elements
Apogee altitude
486.562 km
Perigee altitude
484.751 km
Semi-major axis
6,863.794 km
Eccentricity
0.00013
Inclination
43.0032°
RAAN
14.9507°
Arg. of periapsis
49.1154°
True anomaly
310.96979°
Mean anomaly
310.9812°
Eccentric anomaly
310.97549°
Mean motion
3.81678 °/min
Orbital period
94.32 mins
BSTAR
0.0005016
Loading maneuver chart data...
Computing Atmospheric mass density...
Loading historical data...
Loading historical data...
Loading historical data...
Loading historical data...
Loading historical data...
Loading historical data...
Loading historical data...

Documentation

Showing up to 5 results
|